STARLINK-1486 (45757 NORAD) Tracking and Keplerian Element Data

This shows tracking and keplerian element data for the satellite.

Feedback or suggestion? Click here.




ElementValue
Catalog45757
NameSTARLINK-1486
Epoch Orbit447
Epoch Day185.50001157
Epoch Year2020
RAAN197.5585
Inclination52.9985
Eccentricity0.0001131
Argument of Perigee116.5994
Mean Anonmoly254.5123
Mean Motion15.63783145
Decay Rate-0.01084805
L11 45757U 20038AD 20185.50001157 -.01084805 00000-0 -12510-1 0 9994
L22 45757 52.9985 197.5585 0001131 116.5994 254.5123 15.63783145 4479

Live tracking and technical data element details for STARLINK-1486 (NORAD 45757). STARLINK-1486 can be tracked NOW for your location showing map with azimuth and elevation plus other details from your city location.

Track the satellite on the map from your city or location and see movement details for azimuth, elevation, latitude, longitude, range, height, and movement on the map or in text.







IsCatalogInMostPopularTable: catalog: 45757, numindb: 5
Update: records affected: 1



GetName: 45757 STARLINK-1486

Hit Count: updated at: Sat, 04 Jul 2020 03:23:38 GMT